Location: Goettingen
(51.5300°N, 9.9433°E)
Time: 17:59:03
(UTC+02:00)

ISS - Pass Details

Date: 11 May 2026
Orbit: 414 x 424 km, 51.6° (Epoch: 13 May)

Event Time Altitude Azimuth Distance (km) Brightness Sun altitude
Rises 01:42:36 0° 282° (WNW) 2,357 0.1 -20.4°
Reaches altitude 10° 01:44:42 10° 279° (W) 1,494 -0.9 -20.4°
Enters shadow 01:45:06 13° 278° (W) 1,331 -1.2 -20.4°
